logo
Search for airport 
image banner adimage banner adimage banner ad
image banner ad

LOAS - Spitzerberg

Located in District Bruck An Der Leitha, Austria

ICAO - LOAS, IATA -

Data provided by Airmate  

General information

Coordinates: N48°6'6" E16°56'2"
Elevation is 623 feet MSL.
 
View others Airports in Lower Austria

Operational data

Special qualification required
Current time UTC:
Current local time:
Weather at : LZIB - Bratislava/M. R. Stefanik ( 22 km )
METAR: LZIB 131800Z 21002KT CAVOK 21/09 Q1023 NOSIG
TAF: TAF LZIB 131715Z 1318/1418 30009KT CAVOK TEMPO 1400/1408 VRB02KT
View NOTAMs / SUP AIP / TFR affecting this airport [VIEW]
Communications frequencies: [VIEW]

Runways:

RWY identifierQFULength (ft)Width (ft)SurfaceLDA (ft)
15229782GRASS
33229782GRASS

Airport contact information

Address: District Bruck An Der Leitha Austria

Other aviation service providers

Aviation club (not for profit)

Flugsportzentrum Spitzerberg

Flugsportzentrum Spitzerberg

Österreichischer Aero Club-Flugsportzentrum

Österreichischer Aero Club-Flugsportzentrum

Satellite view of LOAS